Overview Statistics Trail Chart Weather Telemetry Raw packets
 

This is the latest recevied weather packets stored in our database for station/object K5OLV. If no packets are shown the sender has not sent any weather packets the latest 10 day(s).

<< 48 49 50 51 52 53 54 >>
Time Temp. Humidity Pressure Rain* Wind** Luminosity Snow
1788302346 29.44° C 72% 1017.4 hPa 0 mm - 101 W/m² -
1788302041 29.44° C 72% 1017.3 hPa 0 mm - 62 W/m² -
1788301736 30° C 73% 1017.1 hPa 0 mm - 93 W/m² -
1788301433 30.56° C 64% 1017.2 hPa 0 mm - 88 W/m² -
1788301128 31.11° C 65% 1017.1 hPa 0 mm - 117 W/m² -
1788300824 31.67° C 65% 1017 hPa 0 mm - 129 W/m² -
1788300524 32.22° C 63% 1017.1 hPa 0 mm - 244 W/m² -
1788300223 32.78° C 61% 1017.1 hPa 0 mm - 271 W/m² -
1788299922 32.78° C 67% 1017 hPa 0 mm - 298 W/m² -
1788299621 32.78° C 57% 1017.1 hPa 0 mm - 290 W/m² -
1788299320 32.22° C 59% 1017 hPa 0 mm - 289 W/m² -
1788299019 31.67° C 65% 1017.3 hPa 0 mm - 309 W/m² -
1788298713 29.44° C 68% 1017 hPa 0 mm - 304 W/m² -
1788298414 27.78° C 77% 1017.2 hPa 0 mm - 316 W/m² -
1788298108 27.78° C 83% 1017.2 hPa 0 mm - 92 W/m² -
1788297804 28.33° C 81% 1017.1 hPa 0 mm - 77 W/m² -
1788297500 28.33° C 79% 1017.2 hPa 0 mm - 76 W/m² -
1788297196 28.33° C 78% 1017.1 hPa 0 mm - 78 W/m² -
1788296891 28.89° C 75% 1017.2 hPa 0 mm - 89 W/m² -
1788296587 30° C 71% 1017.3 hPa 0 mm - 136 W/m² -
1788296283 31.11° C 63% 1017.3 hPa 0 mm - 94 W/m² -
1788295982 30.56° C 62% 1017.4 hPa 0 mm - 122 W/m² -
1788295678 31.11° C 62% 1017.3 hPa 0 mm - 171 W/m² -
1788295374 32.22° C 59% 1017.4 hPa 0 mm - 222 W/m² -
1788295074 32.22° C 61% 1017.3 hPa 0 mm - 494 W/m² -

* Rain latest hour (hover to see other rain measurements)
** Current wind speed in m/s (hover to see current wind gust speed)